Pagina principale
METAR-TAF:

METAR-TAF

Aeroporti :

Springbok, Sudafrica

latitudine: 29-40S, longitudine: 17-53E, altezza: 1006 m

Osservazione

Il bollettino è stato emesso 12 ore e 5 minuti fa, alle 07:24 UTC
Vento 14 kt da est/nord-est
Temperature 27°C
Umidità 23%
Pressione 1020 hPa

METAR: FASB 240724Z AUTO 07014KT //// // ////// 27/04 Q1020

Ora: 21:29 (19:29 UTC)


TAF: mancante

Osservazioni e previsioni meteorologiche di più di 4000 aeroporti (messaggi METAR e TAF).

Le stazioni disponibili sono rappresentate dai dischi gialli e rossi sulla carta.

Puntare il mouse per vedere il nome della stazione.

Clicca sopra per visualizzare le osservazioni e previsioni meteorologiche.

Per cambiare la mappa : fare clic sui pulsanti verdi con una croce nera per ingrandire, il pulsante verde con un trattino per diminuire, o sulla freccia verde per le mappe adiacenti.


METAR-TAF: